Lapse_Rate
2.3 2.3 2.3 2.1 2.0 1.5 1.0 0.5 0.1 0.1 0.0 -0.1 -0.2 -0.4 -0.5 -0.9 -1.6 2.5 3.3 3.8 3.4 3.4 3.4 5.3 5.8 5.6 5.7 4.4 4.7 4.3 6.5 6.5 6.5 6.5 6.5 5.9 6.5 5.6 5.0 5.4 4.3 3.9 2.7 2.7 4.4
2.4 2.5 2.3 2.1 2.1 1.3 0.9 0.6 0.4 0.3 0.3 0.2 0.2 0.1 0.2 -0.6 -0.1 1.6 2.0 2.3 3.6 3.7 5.9 6.3 6.0 5.1 4.7 5.0 4.6 5.6 6.5 6.5 6.5 6.5 6.5 6.1 6.1 5.7 6.0 4.9 4.9 3.8 2.9 4.3 1.6
2.7 2.6 2.3 2.4 1.8 1.2 0.9 0.7 0.6 0.7 0.8 0.6 0.6 0.4 -0.3 -0.7 3.8 4.2 3.4 4.1 4.6 5.0 6.2 6.2 6.4 6.2 5.8 5.0 5.0 5.6 6.5 6.5 6.1 4.8 4.8 5.6 5.6 5.8 6.3 6.5 4.3 5.5 3.7 4.7 3.0
2.9 2.6 2.5 2.4 1.6 1.2 0.9 0.7 0.7 1.1 1.0 0.9 1.0 0.7 0.0 2.2 6.5 6.3 3.6 5.7 4.5 4.7 6.4 6.7 6.5 5.9 6.4 6.5 4.8 6.5 5.9 5.7 5.3 5.6 6.0 6.4 5.3 5.6 5.2 5.2 4.8 4.1 2.4 4.4 4.2
3.0 2.7 2.7 2.8 1.7 1.4 1.1 1.1 1.0 1.2 1.2 1.3 1.4 1.1 2.3 5.9 4.8 5.8 4.7 4.5 5.1 5.9 6.0 6.3 6.0 5.8 6.5 6.2 5.5 6.5 6.5 5.2 5.0 5.5 4.7 5.0 5.7 6.2 5.0 3.6 3.8 3.7 3.3 3.9 3.5
3.1 3.0 2.5 2.1 1.7 1.5 1.3 1.4 1.4 1.2 1.4 1.3 1.4 1.5 4.6 6.3 5.3 6.4 5.7 5.9 5.9 6.3 6.7 6.2 6.2 6.5 5.7 6.2 6.4 6.0 5.7 5.6 5.1 5.1 5.0 6.3 6.1 5.8 5.3 4.1 3.8 4.1 2.7 2.6 3.1
3.3 2.7 2.3 2.3 1.7 1.4 1.6 1.4 1.3 1.2 1.0 1.5 1.8 3.2 4.5 4.7 4.2 5.0 4.4 5.3 6.1 6.4 6.8 6.1 6.7 6.7 5.8 6.5 6.1 5.9 6.5 6.5 6.3 5.7 6.2 5.6 6.5 6.5 4.6 3.8 4.4 5.3 4.8 3.0 2.8
3.1 2.6 2.4 2.2 2.2 2.1 1.1 1.1 1.1 1.2 1.0 1.4 2.0 3.6 4.5 4.3 5.6 3.2 3.8 4.6 5.7 5.8 5.9 5.6 6.1 6.2 6.0 5.6 5.7 6.5 6.5 6.5 6.5 6.5 5.9 5.9 6.5 6.5 6.1 5.1 5.3 5.1 4.8 4.5 2.4
2.9 2.8 2.7 2.7 2.3 2.0 1.3 1.3 1.4 1.0 1.4 1.6 2.8 4.1 5.0 5.8 5.4 5.3 4.7 5.3 6.6 7.4 6.8 7.1 6.2 5.4 5.9 6.5 6.5 6.5 6.5 6.5 6.5 6.4 6.5 6.5 6.5 6.5 4.9 5.4 5.8 5.7 4.8 4.4 2.6
3.0 3.3 2.9 2.7 2.4 1.9 1.6 1.5 2.2 1.0 3.4 4.3 6.1 6.2 4.5 5.7 6.7 7.6 6.1 6.7 7.3 6.5 6.2 6.3 4.7 6.5 6.5 6.5 6.5 6.5 6.5 6.5 6.5 6.5 6.5 6.5 6.5 6.5 4.7 4.5 4.2 3.5 2.1 2.3 1.8
3.2 3.5 3.4 2.7 2.5 1.9 1.7 2.5 4.2 4.6 4.8 4.3 4.7 4.9 5.4 7.0 7.3 7.3 7.1 7.1 7.3 6.2 6.5 5.7 6.5 6.5 6.5 6.5 6.5 6.5 6.5 6.5 6.5 6.5 6.5 6.5 6.5 6.5 5.8 4.8 5.0 3.4 2.9 2.7 2.0
3.1 3.2 3.1 2.7 2.5 2.0 1.5 3.9 6.4 6.3 5.5 4.8 5.4 6.3 5.6 6.4 6.5 5.4 7.2 6.5 6.4 6.5 6.5 6.5 6.5 6.5 6.5 6.5 6.5 6.5 6.5 6.5 6.5 6.5 6.5 6.5 6.5 6.5 6.5 6.2 5.7 6.6 5.9 5.5 4.5
3.2 3.2 3.3 3.2 2.5 1.8 2.9 5.5 5.9 6.7 5.7 6.2 5.5 6.4 6.6 6.5 6.7 6.9 7.2 6.3 6.5 6.5 6.5 6.5 6.5 6.5 6.5 6.5 6.5 6.5 6.5 6.5 6.5 6.5 6.5 6.5 6.5 6.5 6.5 5.9 6.7 6.5 6.1 5.5 5.4
3.4 3.2 3.2 3.3 4.5 3.8 4.5 6.9 5.3 4.7 6.5 6.5 6.6 6.5 7.0 7.1 6.4 6.2 5.9 6.5 6.4 6.5 6.5 6.5 6.4 6.5 6.5 6.5 6.5 6.5 6.5 6.5 6.5 6.5 6.5 6.5 6.5 6.5 6.5 6.5 6.5 6.4 6.4 6.8 6.9
2.7 3.0 3.2 4.3 4.3 5.3 6.2 6.5 4.8 4.2 6.5 6.5 6.5 6.6 6.6 6.2 6.5 6.5 5.8 6.0 6.5 6.5 6.5 6.5 6.5 6.5 6.5 6.5 6.5 6.5 6.5 6.5 6.5 6.5 6.5 6.5 6.5 6.5 6.5 6.5 6.5 6.5 6.7 6.1 5.8
1.9 2.1 3.7 4.2 3.9 5.5 6.3 6.2 5.2 6.5 6.5 6.5 6.5 6.5 6.5 6.5 6.7 6.8 6.6 6.6 5.8 6.5 6.5 6.5 5.7 6.5 6.5 6.5 6.5 6.5 6.5 6.5 6.5 6.5 6.5 6.5 6.5 6.5 6.5 6.5 6.5 6.5 6.8 6.9 6.3
1.3 1.5 2.4 4.6 5.3 5.6 5.4 6.1 6.5 6.5 6.5 6.5 6.5 6.5 6.5 6.5 6.5 6.5 6.5 6.5 6.5 6.5 6.5 6.5 6.5 6.5 6.4 6.5 6.5 6.5 6.5 6.5 6.5 6.5 6.5 6.5 6.5 6.5 6.5 6.5 6.5 6.5 6.3 5.7 4.9
1.3 1.9 3.1 4.4 4.0 4.9 4.7 6.4 6.5 6.5 6.5 6.5 6.5 6.5 6.5 6.5 6.5 6.5 6.5 6.5 6.5 6.5 6.5 6.5 6.5 6.5 6.5 6.5 6.5 6.5 6.5 6.5 6.5 6.5 6.5 6.5 6.5 6.5 6.5 6.6 6.9 7.0 6.8 6.4 5.6
2.7 3.4 5.4 4.3 3.9 4.0 6.2 6.5 6.5 6.5 6.5 6.5 6.5 6.5 6.5 6.5 6.5 6.5 6.5 6.5 6.5 6.5 6.5 6.5 6.5 6.5 6.5 6.5 6.5 6.5 6.5 6.5 6.5 6.5 6.5 6.5 6.5 6.5 6.5 6.5 6.5 6.4 5.5 5.2 5.2
4.9 6.1 6.0 5.4 4.8 5.7 6.4 6.5 6.5 6.5 6.5 6.5 6.5 6.5 6.5 6.5 6.5 6.5 6.5 6.5 6.5 6.5 6.5 6.5 6.5 6.5 6.5 6.4 6.5 6.5 6.5 6.5 6.5 6.5 6.5 6.5 6.5 6.5 6.5 6.5 6.5 6.5 6.6 5.4 5.1
5.9 5.8 7.0 7.9 6.5 5.7 6.5 6.5 6.5 6.8 6.7 6.5 6.5 6.5 6.5 6.5 6.5 6.5 6.5 6.5 6.5 6.5 6.4 6.5 6.5 6.5 6.5 6.5 6.5 6.5 6.5 6.5 6.5 6.5 6.5 6.5 6.5 6.5 6.5 6.5 6.5 6.5 5.4 5.0 4.9
6.9 6.5 7.4 7.2 6.0 6.1 6.5 6.5 6.7 6.6 6.9 6.5 6.5 6.5 6.5 6.5 6.5 6.5 6.5 6.5 6.2 6.5 6.5 6.5 6.5 6.5 6.5 6.5 6.5 6.5 6.5 6.5 6.5 6.5 6.5 6.5 6.5 6.5 6.5 6.5 6.5 6.5 6.2 4.9 3.9
6.5 6.5 7.0 6.9 6.5 6.5 6.5 6.5 6.6 6.5 6.5 6.5 6.5 6.5 6.5 6.5 6.5 6.5 6.5 6.6 6.7 6.5 6.5 6.5 6.5 6.5 6.5 6.5 6.5 6.5 6.5 6.5 6.5 6.5 6.5 6.5 6.5 6.5 6.5 6.5 6.5 6.5 6.2 5.1 4.5
6.0 6.5 6.1 6.5 5.6 6.5 6.5 6.5 6.5 6.5 6.5 6.5 6.5 6.5 6.5 6.5 6.5 6.5 6.5 6.5 6.3 6.5 6.6 6.4 6.5 6.5 6.5 6.5 6.5 6.5 6.5 6.5 6.5 6.5 6.5 6.5 6.5 6.5 6.5 6.5 6.5 6.2 5.7 4.6 3.4
5.3 6.4 6.5 6.5 6.3 6.5 6.5 6.5 6.5 6.5 6.5 6.3 6.5 6.5 6.5 6.5 6.5 6.5 6.5 6.5 6.5 6.6 6.4 6.5 6.5 6.5 6.5 6.5 6.5 6.5 6.5 6.5 6.5 6.5 6.5 6.5 6.5 6.5 6.5 6.5 6.3 6.2 6.0 5.4 5.4
5.3 5.6 6.1 6.4 6.6 6.5 6.5 6.5 6.5 6.5 6.5 6.5 6.5 6.5 6.5 6.5 6.5 6.5 6.5 6.5 6.5 6.5 6.5 6.5 6.5 6.5 6.5 6.5 6.5 6.5 6.5 6.5 6.5 6.5 6.5 6.5 6.5 6.5 6.5 6.6 6.5 6.1 6.1 6.1 5.5
4.5 5.6 4.1 6.2 6.5 6.5 6.5 6.5 6.5 6.5 6.4 6.4 6.4 6.5 6.5 6.5 6.2 6.5 6.3 5.9 6.2 6.5 6.5 6.5 6.5 6.5 6.5 6.5 6.5 6.5 6.5 6.5 6.5 6.5 6.5 6.5 6.5 6.5 6.5 6.5 6.3 5.9 6.2 6.5 6.0
Wind_Speed
10 9 8 6 5 4 7 9 11 13 15 16 18 19 21 22 26 4 6 11 6 4 1 5 4 3 1 5 5 5 2 6 7 6 15 15 3 5 3 1 4 6 5 7 15
12 11 9 7 4 3 5 8 10 12 14 16 18 19 20 20 4 8 12 4 7 3 1 3 6 6 3 4 2 5 4 10 8 10 12 12 5 5 3 7 6 2 6 15 17
13 12 10 8 4 3 5 6 10 12 14 15 18 19 22 16 5 5 3 9 7 2 2 2 3 1 2 2 4 4 6 5 10 10 12 10 7 2 1 6 8 5 6 13 8
16 14 11 9 6 5 5 7 9 14 15 16 17 19 25 1 5 4 6 5 4 2 3 2 2 4 2 4 5 6 11 6 8 4 4 6 5 9 6 7 8 4 14 16 13
17 14 12 11 8 6 6 8 10 13 14 16 16 17 6 3 9 3 10 3 7 3 4 3 4 3 4 4 7 7 7 8 9 12 7 7 9 8 14 10 9 6 13 20 19
18 15 12 10 9 8 8 9 11 12 13 14 14 14 2 3 6 5 5 7 7 3 7 4 4 4 5 4 3 4 8 10 8 10 9 7 10 2 13 10 9 10 11 16 20
18 14 13 12 10 9 9 10 14 14 12 13 11 3 2 14 4 13 8 5 4 6 4 5 4 1 4 8 2 6 10 12 14 5 9 5 19 12 14 10 12 17 15 15 21
17 17 15 13 10 10 10 12 15 17 12 10 4 1 7 7 15 9 6 7 9 8 5 10 4 4 4 4 8 6 4 7 2 7 9 6 22 20 19 11 18 18 16 13 21
20 18 15 13 9 10 11 15 20 14 13 6 1 2 9 9 4 10 9 5 5 5 4 6 4 6 3 2 5 1 8 9 11 8 8 8 14 13 14 12 14 15 17 16 11
21 19 16 12 8 9 13 16 14 6 5 4 3 2 6 5 4 3 4 5 1 5 6 2 3 4 1 4 6 5 6 7 7 8 13 18 21 11 11 8 10 9 8 9 10
23 20 16 12 8 6 6 4 3 2 2 8 6 4 7 2 3 2 6 6 2 4 1 5 2 8 10 9 9 9 15 20 17 14 17 19 25 13 7 7 9 9 9 10 10
24 21 17 13 8 2 1 2 2 3 6 12 16 16 19 2 6 10 3 1 3 5 2 4 6 10 7 8 12 14 18 19 14 8 13 17 30 10 5 7 8 16 16 14 18
24 21 17 12 5 2 4 4 4 4 2 9 7 7 9 13 11 10 5 4 5 6 7 6 7 10 10 9 13 13 13 16 21 7 6 8 22 2 3 6 14 13 9 13 12
22 19 17 11 3 4 4 4 8 4 2 7 6 6 6 4 5 8 11 7 5 8 8 7 12 14 14 13 12 15 12 16 13 4 10 5 11 17 0 11 12 12 14 16 17
21 15 12 13 2 4 5 9 7 3 4 4 5 7 7 7 2 2 4 4 6 6 4 6 7 6 7 6 5 8 9 7 4 4 4 6 4 14 6 6 7 14 13 14 16
21 18 11 2 3 3 5 6 3 2 7 5 5 6 4 3 2 2 3 3 4 4 4 7 6 5 7 9 7 7 4 7 3 4 6 9 7 18 3 3 4 7 10 12 14
24 18 9 5 2 4 4 3 3 4 4 6 5 6 7 5 5 6 5 3 4 1 2 3 4 4 3 4 3 8 5 3 3 2 13 4 6 8 6 6 7 5 4 6 10
23 15 4 3 4 4 4 3 5 8 4 3 4 8 6 3 2 2 4 6 1 3 2 2 5 3 2 2 0 3 5 4 5 4 4 4 6 2 5 4 6 6 7 11 11
26 3 2 1 5 3 4 4 7 4 4 2 1 3 4 2 1 6 3 3 2 2 5 2 5 2 6 3 2 2 3 1 3 5 4 5 1 3 6 3 5 6 6 5 6
7 4 3 5 4 3 6 6 3 4 3 2 3 1 3 3 3 4 3 2 2 2 3 3 6 6 2 3 3 3 2 1 2 4 11 5 6 4 7 5 1 4 6 7 8
6 4 3 3 2 3 6 5 2 2 7 3 2 2 4 3 3 2 2 2 9 3 7 3 1 3 5 3 4 1 1 2 1 2 4 9 6 4 11 11 6 7 9 11 9
3 4 2 2 3 2 4 4 1 4 2 2 2 2 2 4 2 1 4 3 7 3 3 4 2 4 4 7 7 5 7 6 4 4 3 3 5 3 1 4 9 8 13 10 9
4 3 2 3 4 3 2 6 4 2 2 3 3 4 4 3 1 2 4 1 3 3 1 3 1 2 7 4 1 3 3 3 3 3 5 3 3 4 1 7 13 15 13 14 12
3 4 1 1 2 4 5 5 5 7 4 4 3 4 3 2 2 2 3 4 6 3 3 2 3 5 7 4 4 7 11 9 6 3 11 12 16 16 14 15 17 13 10 10 10
1 3 5 7 6 4 4 6 7 3 3 4 3 4 4 3 2 2 2 3 4 8 4 2 4 3 9 11 12 11 14 16 10 9 8 13 12 15 11 4 6 6 7 6 6
4 4 3 5 10 6 4 4 4 3 3 3 6 6 6 3 3 1 2 3 2 4 2 1 2 2 3 7 8 9 12 12 15 11 13 14 14 8 6 6 8 9 5 3 5
2 2 4 4 5 4 4 5 5 7 4 6 8 5 5 5 5 3 1 3 5 3 3 4 4 3 7 7 7 9 11 14 14 7 6 5 5 4 9 10 11 8 4 4 3
Wind_Direction
225 233 236 246 269 323 342 347 351 345 342 337 334 332 329 328 319 293 256 225 196 188 137 291 283 289 165 250 202 116 54 262 225 221 265 284 270 267 253 13 322 341 164 187 139
224 228 232 239 257 316 336 341 341 336 331 332 330 325 325 332 299 274 245 223 198 162 182 284 293 347 318 281 285 150 182 240 202 241 274 279 254 286 11 345 297 9 26 135 142
224 225 226 233 249 290 310 322 322 317 322 331 329 326 325 332 318 256 174 199 213 191 171 228 302 29 284 334 252 222 219 252 271 251 257 273 295 250 168 277 270 245 140 153 156
224 222 223 224 247 251 286 303 312 314 322 330 328 329 322 53 294 321 180 226 257 306 311 316 7 344 250 275 272 276 276 238 273 260 309 284 273 304 211 245 257 220 162 166 177
224 222 221 230 234 257 280 297 305 312 322 325 329 336 355 22 252 301 265 346 317 288 215 228 248 200 242 261 319 277 279 282 283 298 282 270 265 252 267 258 271 260 167 178 190
221 217 211 211 224 251 274 289 297 304 312 319 332 331 359 234 255 298 36 333 252 267 293 198 230 261 257 270 251 294 289 287 294 308 285 295 282 260 267 265 264 255 198 195 192
215 209 202 215 228 246 265 282 287 291 300 314 324 312 227 247 228 285 317 252 248 229 254 253 172 104 340 325 346 307 317 316 290 287 281 340 282 267 276 276 265 269 263 195 204
198 193 203 217 235 252 269 278 287 292 305 304 312 247 248 253 260 264 232 273 243 248 223 252 223 240 174 264 333 313 304 295 36 329 279 148 282 283 277 272 272 265 261 237 214
183 190 203 219 231 263 282 289 288 293 286 256 278 176 263 297 247 248 178 228 307 281 275 250 126 200 261 293 340 273 269 263 297 271 268 182 270 268 283 273 263 267 264 252 209
182 192 201 210 228 264 292 286 282 338 259 186 270 322 268 258 261 245 169 181 264 349 340 58 132 161 170 145 231 240 247 239 241 296 302 291 281 276 271 287 277 284 286 281 262
181 190 194 198 224 271 337 348 14 318 249 209 193 236 283 296 332 318 36 359 82 68 277 299 105 213 220 211 235 254 268 274 276 280 282 290 289 295 299 312 318 290 285 300 305
179 182 188 193 213 235 87 217 210 180 300 237 240 245 256 334 296 290 157 93 136 213 237 328 257 248 240 247 250 251 263 272 282 276 272 280 281 305 296 287 19 36 46 24 7
171 174 183 192 177 146 201 238 130 90 269 279 211 226 238 195 233 247 174 175 198 242 248 219 252 295 273 269 258 257 272 287 281 299 295 293 281 21 342 2 51 48 41 34 23
163 171 179 166 163 179 203 186 125 108 310 267 204 239 159 200 243 237 192 161 210 221 216 238 245 240 261 264 261 273 245 266 282 12 284 84 291 292 354 83 52 32 30 20 13
155 161 166 195 321 171 184 152 123 66 300 194 144 166 152 162 286 8 151 114 198 218 128 235 313 289 262 235 243 266 240 229 202 213 300 236 206 275 35 62 67 38 19 16 20
154 150 161 160 271 280 153 105 79 90 247 205 142 171 136 201 264 275 141 127 175 212 235 238 255 260 256 291 207 294 248 225 213 161 240 256 200 277 121 143 71 46 19 11 10
148 145 152 129 196 333 60 77 91 196 297 163 186 170 197 175 215 192 181 163 195 250 265 330 226 239 41 326 20 38 47 313 288 217 253 155 211 247 127 93 83 68 16 5 18
136 133 199 168 60 59 63 87 193 211 239 30 46 154 172 159 220 250 196 210 131 118 110 222 305 182 78 109 312 320 142 178 247 248 277 294 248 254 143 111 91 59 16 18 21
135 137 148 93 89 80 156 200 205 226 319 48 81 146 174 118 351 31 199 152 91 130 168 236 258 287 5 140 97 354 245 169 200 221 258 231 336 239 183 128 63 38 10 332 309
131 132 102 150 153 140 183 221 238 24 335 38 151 94 125 75 75 55 356 43 183 181 141 215 295 246 337 96 24 178 155 143 240 240 252 230 236 225 186 187 154 311 308 320 298
104 87 131 199 164 124 196 214 277 329 28 55 82 46 76 83 87 81 42 56 18 47 65 46 152 276 353 208 183 26 323 61 228 226 239 271 263 170 194 200 178 256 258 261 279
111 103 183 63 111 195 174 180 126 260 289 38 51 23 128 132 175 157 191 1 321 185 166 130 127 281 253 305 290 217 248 185 154 270 248 258 251 8 289 196 219 279 274 270 244
100 91 62 100 157 199 198 195 210 247 159 80 92 49 30 49 198 214 97 2 351 27 21 155 130 313 305 313 21 155 197 148 110 132 218 272 269 56 233 263 252 255 293 269 274
104 118 50 236 218 172 148 172 195 191 151 138 131 121 132 170 166 254 9 54 4 35 46 73 187 193 244 280 321 296 290 265 201 199 265 248 276 284 282 286 283 270 267 275 280
134 151 163 178 205 183 150 174 176 164 189 132 120 102 135 175 28 121 68 17 25 25 35 54 216 229 260 276 295 302 291 293 281 260 258 282 280 281 298 344 293 286 335 16 358
139 132 130 151 157 146 149 165 120 134 137 141 116 113 88 99 115 68 51 77 214 357 83 323 253 32 275 278 275 284 279 286 283 280 267 268 293 12 322 317 327 319 309 69 24
211 82 118 142 129 112 181 152 187 134 35 108 136 110 110 146 117 123 174 243 235 243 192 200 185 199 261 252 277 279 251 255 254 247 270 295 219 291 337 340 318 309 355 7 332